When you browse on this site, cookies collect data to enhance your experience and personalize the content and advertising you see.
Visit our Privacy Policy to learn more. By continuing to use the site, you agree to this use of cookies and data.
  • In Austria
  • List of Countries
  • For 7 days
  • Water Temperature
  • Satellite Maps
  • Weather Map
  • News
  • Weather Widgets
  • user-avatar
    Login

    Hourly Weather Kormuzh

    Today, 23 July, Tuesday

    Time Temperature Precipitation Wind Pressure Humidity
    00:00 +14°C° 0 mm 3 mps 749 mmHg 95%
    01:00 +14°C° 0 mm 3 mps 749 mmHg 95%
    02:00 +13°C° 0 mm 3 mps 749 mmHg 97%
    03:00 +13°C° 0 mm 3 mps 749 mmHg 97%
    04:00 +12°C° 0 mm 3 mps 749 mmHg 97%
    05:00 +12°C° 0 mm 3 mps 749 mmHg 98%
    06:00 +12°C° 0 mm 4 mps 749 mmHg 96%
    07:00 +13°C° 0 mm 4 mps 749 mmHg 95%
    08:00 +14°C° 0 mm 4 mps 749 mmHg 93%
    09:00 +15°C° 0 mm 4 mps 749 mmHg 90%
    10:00 +17°C° 0 mm 4 mps 749 mmHg 86%
    11:00 +18°C° 0 mm 4 mps 748 mmHg 82%
    12:00 +18°C° 0.1 mm 4 mps 748 mmHg 79%
    13:00 +19°C° 0.1 mm 4 mps 748 mmHg 77%
    14:00 +19°C° 0.1 mm 5 mps 748 mmHg 75%
    15:00 +20°C° 0 mm 4 mps 748 mmHg 75%
    16:00 +20°C° 0 mm 3 mps 748 mmHg 74%
    17:00 +21°C° 0 mm 3 mps 748 mmHg 74%
    18:00 +20°C° 0.2 mm 3 mps 748 mmHg 79%
    19:00 +19°C° 0.2 mm 3 mps 748 mmHg 85%
    20:00 +18°C° 0.2 mm 3 mps 747 mmHg 90%
    21:00 +18°C° 0.1 mm 3 mps 747 mmHg 91%
    22:00 +17°C° 0.1 mm 3 mps 748 mmHg 93%
    23:00 +16°C° 0.1 mm 3 mps 748 mmHg 95%

    Tomorrow, 24 July, Wednesday

    Time Temperature Precipitation Wind Pressure Humidity
    00:00 +16°C° 0 mm 3 mps 748 mmHg 95%
    01:00 +16°C° 0 mm 3 mps 748 mmHg 96%
    02:00 +14°C° 0 mm 3 mps 747 mmHg 97%
    03:00 +14°C° 0 mm 3 mps 747 mmHg 97%
    04:00 +14°C° 0 mm 3 mps 748 mmHg 97%
    05:00 +14°C° 0 mm 3 mps 748 mmHg 98%
    06:00 +16°C° 0 mm 3 mps 748 mmHg 94%
    07:00 +18°C° 0 mm 3 mps 748 mmHg 90%
    08:00 +19°C° 0 mm 3 mps 748 mmHg 86%
    09:00 +21°C° 0.1 mm 3 mps 748 mmHg 77%
    10:00 +22°C° 0.1 mm 3 mps 748 mmHg 68%
    11:00 +25°C° 0.1 mm 4 mps 748 mmHg 60%
    12:00 +25°C° 0.1 mm 3 mps 748 mmHg 58%
    13:00 +26°C° 0.1 mm 3 mps 748 mmHg 57%
    14:00 +26°C° 0.1 mm 3 mps 748 mmHg 55%
    15:00 +26°C° 0 mm 3 mps 748 mmHg 57%
    16:00 +26°C° 0 mm 3 mps 748 mmHg 58%
    17:00 +26°C° 0 mm 3 mps 748 mmHg 60%
    18:00 +24°C° 0.1 mm 2 mps 748 mmHg 68%
    19:00 +21°C° 0.1 mm 2 mps 748 mmHg 75%
    20:00 +19°C° 0.1 mm 2 mps 748 mmHg 82%
    21:00 +18°C° 0 mm 2 mps 749 mmHg 85%
    22:00 +17°C° 0 mm 2 mps 749 mmHg 88%
    23:00 +16°C° 0 mm 2 mps 749 mmHg 91%

    Day after tomorrow, 25 July, Thursday

    Time Temperature Precipitation Wind Pressure Humidity
    00:00 +16°C° 0 mm 2 mps 749 mmHg 91%
    01:00 +15°C° 0 mm 2 mps 749 mmHg 91%
    02:00 +15°C° 0 mm 2 mps 749 mmHg 91%
    03:00 +15°C° 0 mm 2 mps 749 mmHg 91%
    04:00 +15°C° 0 mm 2 mps 749 mmHg 91%
    05:00 +14°C° 0 mm 2 mps 750 mmHg 90%
    06:00 +16°C° 0 mm 2 mps 750 mmHg 85%
    07:00 +18°C° 0 mm 2 mps 750 mmHg 79%
    08:00 +20°C° 0 mm 2 mps 749 mmHg 73%
    09:00 +21°C° 0.3 mm 2 mps 749 mmHg 71%
    10:00 +22°C° 0.3 mm 3 mps 749 mmHg 68%
    11:00 +24°C° 0.3 mm 3 mps 749 mmHg 66%
    12:00 +24°C° 0.8 mm 3 mps 749 mmHg 67%
    13:00 +24°C° 0.8 mm 3 mps 749 mmHg 69%
    14:00 +23°C° 0.8 mm 4 mps 748 mmHg 70%
    15:00 +24°C° 0.8 mm 3 mps 748 mmHg 73%
    16:00 +24°C° 0.8 mm 3 mps 748 mmHg 77%
    17:00 +22°C° 0.8 mm 3 mps 747 mmHg 80%
    18:00 +21°C° 0.5 mm 3 mps 747 mmHg 83%
    19:00 +20°C° 0.5 mm 2 mps 747 mmHg 87%
    20:00 +18°C° 0.5 mm 2 mps 747 mmHg 90%
    21:00 +18°C° 0 mm 2 mps 747 mmHg 92%
    22:00 +17°C° 0 mm 2 mps 747 mmHg 94%
    23:00 +16°C° 0 mm 2 mps 747 mmHg 96%

    26 July, Friday

    Time Temperature Precipitation Wind Pressure Humidity
    00:00 +15°C° 0 mm 2 mps 747 mmHg 96%
    01:00 +15°C° 0 mm 2 mps 747 mmHg 97%
    02:00 +14°C° 0 mm 2 mps 747 mmHg 97%
    03:00 +14°C° 0 mm 2 mps 747 mmHg 97%
    04:00 +14°C° 0 mm 2 mps 747 mmHg 97%
    05:00 +14°C° 0 mm 2 mps 747 mmHg 98%
    06:00 +14°C° 0 mm 3 mps 747 mmHg 95%
    07:00 +16°C° 0 mm 3 mps 747 mmHg 93%
    08:00 +17°C° 0 mm 3 mps 747 mmHg 90%
    09:00 +18°C° 0.1 mm 3 mps 747 mmHg 87%
    10:00 +19°C° 0.1 mm 4 mps 747 mmHg 83%
    11:00 +19°C° 0.1 mm 4 mps 747 mmHg 80%
    12:00 +20°C° 0.1 mm 4 mps 747 mmHg 77%
    13:00 +22°C° 0.1 mm 4 mps 746 mmHg 73%
    14:00 +23°C° 0.1 mm 4 mps 746 mmHg 70%
    15:00 +22°C° 0.4 mm 4 mps 746 mmHg 75%
    16:00 +22°C° 0.4 mm 4 mps 746 mmHg 80%
    17:00 +21°C° 0.4 mm 4 mps 746 mmHg 84%
    18:00 +20°C° 0.5 mm 4 mps 746 mmHg 87%
    19:00 +19°C° 0.5 mm 4 mps 746 mmHg 89%
    20:00 +19°C° 0.5 mm 4 mps 746 mmHg 91%
    21:00 +18°C° 0.2 mm 4 mps 746 mmHg 93%
    22:00 +17°C° 0.2 mm 4 mps 746 mmHg 95%
    23:00 +17°C° 0.2 mm 3 mps 746 mmHg 97%

    27 July, Saturday

    Time Temperature Precipitation Wind Pressure Humidity
    00:00 +17°C° 0 mm 3 mps 746 mmHg 97%
    01:00 +17°C° 0 mm 3 mps 746 mmHg 98%
    02:00 +16°C° 0 mm 2 mps 745 mmHg 98%
    03:00 +17°C° 0.1 mm 2 mps 745 mmHg 98%
    04:00 +17°C° 0.1 mm 2 mps 745 mmHg 98%
    05:00 +17°C° 0.1 mm 2 mps 745 mmHg 98%
    06:00 +17°C° 0.2 mm 2 mps 745 mmHg 97%
    07:00 +17°C° 0.2 mm 2 mps 745 mmHg 97%
    08:00 +18°C° 0.2 mm 2 mps 745 mmHg 96%
    09:00 +19°C° 0.2 mm 3 mps 745 mmHg 92%
    10:00 +20°C° 0.2 mm 3 mps 745 mmHg 88%
    11:00 +22°C° 0.2 mm 4 mps 745 mmHg 84%
    12:00 +22°C° 0.8 mm 5 mps 745 mmHg 83%
    13:00 +23°C° 0.8 mm 5 mps 744 mmHg 82%
    14:00 +25°C° 0.8 mm 5 mps 744 mmHg 80%
    15:00 +23°C° 0.7 mm 5 mps 744 mmHg 82%
    16:00 +23°C° 0.7 mm 5 mps 744 mmHg 83%
    17:00 +23°C° 0.7 mm 4 mps 744 mmHg 85%
    18:00 +22°C° 0.5 mm 4 mps 744 mmHg 88%
    19:00 +21°C° 0.5 mm 4 mps 744 mmHg 91%
    20:00 +20°C° 0.5 mm 3 mps 744 mmHg 93%
    21:00 +19°C° 0 mm 3 mps 744 mmHg 94%
    22:00 +19°C° 0 mm 3 mps 744 mmHg 96%
    23:00 +18°C° 0 mm 2 mps 744 mmHg 97%

    28 July, Sunday

    Time Temperature Precipitation Wind Pressure Humidity
    00:00 +18°C° 0 mm 2 mps 744 mmHg 97%
    01:00 +18°C° 0 mm 2 mps 744 mmHg 97%
    02:00 +17°C° 0 mm 2 mps 744 mmHg 97%
    03:00 +17°C° 0 mm 2 mps 744 mmHg 97%
    04:00 +17°C° 0 mm 2 mps 744 mmHg 97%
    05:00 +17°C° 0 mm 2 mps 744 mmHg 97%
    06:00 +18°C° 0 mm 3 mps 744 mmHg 95%
    07:00 +20°C° 0 mm 3 mps 744 mmHg 92%
    08:00 +21°C° 0 mm 3 mps 744 mmHg 89%
    09:00 +24°C° 0.1 mm 3 mps 744 mmHg 81%
    10:00 +25°C° 0.1 mm 4 mps 744 mmHg 72%
    11:00 +27°C° 0.1 mm 4 mps 744 mmHg 64%
    12:00 +27°C° 0.1 mm 4 mps 744 mmHg 63%
    13:00 +28°C° 0.1 mm 4 mps 744 mmHg 62%
    14:00 +28°C° 0.1 mm 4 mps 744 mmHg 61%
    15:00 +28°C° 0.4 mm 4 mps 744 mmHg 65%
    16:00 +27°C° 0.4 mm 4 mps 743 mmHg 68%
    17:00 +27°C° 0.4 mm 4 mps 743 mmHg 72%
    18:00 +25°C° 0.1 mm 3 mps 743 mmHg 77%
    19:00 +24°C° 0.1 mm 3 mps 744 mmHg 82%
    20:00 +21°C° 0.1 mm 3 mps 744 mmHg 87%
    21:00 +20°C° 0 mm 3 mps 744 mmHg 88%
    22:00 +19°C° 0 mm 3 mps 744 mmHg 89%
    23:00 +18°C° 0 mm 3 mps 744 mmHg 90%
    Show more